Temperature
23 24 26 26 26 26 25 23 23 24 24 24 24 25 25 26 26 25 25 25 25 24 24 24 23 23 23 22 22 21 21 20 20 20 19 19 19 18 18 18 17 17 17 17
23 25 25 26 26 26 26 25 25 25 24 24 25 26 25 25 25 24 24 25 25 24 24 24 24 23 23 22 22 21 21 20 20 19 19 19 19 18 18 18 17 17 17 17
21 23 25 24 25 26 26 26 25 25 24 24 24 24 25 25 25 25 25 25 25 25 24 24 24 23 23 22 22 21 21 20 20 19 19 19 18 18 18 17 17 17 17 17
19 22 23 23 24 26 26 25 25 24 24 24 24 26 26 26 26 25 25 25 25 25 25 24 24 23 23 22 22 21 21 20 20 19 19 19 18 18 18 17 17 17 17 17
17 20 21 23 25 26 25 24 24 24 24 25 25 25 25 26 26 26 26 26 25 25 25 24 24 23 23 22 22 21 21 20 20 20 19 19 18 18 18 17 17 17 17 17
17 20 21 22 24 26 24 23 23 23 23 24 24 21 22 25 25 25 25 25 25 24 24 24 23 23 22 22 22 21 21 20 20 20 19 19 18 18 18 17 17 17 17 17
18 19 20 22 24 25 23 22 24 24 24 24 23 23 25 25 25 25 25 25 24 24 23 23 23 23 22 22 22 21 21 20 20 19 19 19 18 18 17 17 17 17 16 16
17 18 20 22 23 22 21 23 24 24 24 24 25 25 25 25 25 25 24 24 24 23 23 23 22 22 22 22 22 21 20 20 20 19 19 18 18 17 17 17 17 17 16 16
17 18 20 22 23 23 23 23 24 24 24 24 24 24 24 24 24 24 24 23 23 23 22 22 22 22 22 21 21 20 20 20 19 19 18 18 18 17 17 17 16 16 16 16
17 19 20 22 23 23 23 23 24 24 24 24 24 24 23 23 23 23 23 23 22 22 22 21 21 21 21 21 20 20 20 19 19 18 18 18 17 17 17 17 16 16 16 16
17 18 20 21 22 22 23 23 23 23 23 23 23 23 23 23 23 22 22 22 22 22 21 21 21 20 20 20 20 19 19 19 18 18 18 17 17 17 17 17 16 16 16 16
16 17 17 19 21 22 22 22 22 23 23 23 23 22 22 22 22 22 21 21 21 21 21 20 20 20 20 19 19 19 19 18 18 18 17 17 17 17 16 16 16 16 16 16
18 19 19 20 20 21 21 21 22 22 22 22 22 22 21 21 21 21 21 21 21 20 20 20 20 19 19 19 19 18 18 18 18 17 17 17 17 16 16 16 16 16 15 15
18 18 18 19 20 20 20 21 21 21 21 21 21 21 21 20 20 20 20 20 20 20 19 19 19 19 19 18 18 18 18 18 17 17 17 17 17 17 16 16 16 16 16 15
18 18 18 18 19 20 20 20 20 20 20 20 20 20 20 20 20 20 19 19 19 19 19 19 18 18 18 18 18 17 17 17 17 17 17 17 16 16 16 16 16 16 16 15
17 18 18 18 18 19 19 19 19 19 19 19 19 19 19 19 19 19 19 18 19 19 18 18 18 18 18 18 17 17 17 17 17 17 16 16 16 16 16 16 16 15 15 15
17 17 17 17 18 18 18 18 18 18 18 18 18 18 18 18 18 18 18 18 18 18 18 18 18 17 17 17 17 17 17 16 16 16 16 16 16 16 16 15 15 15 15 15
17 17 17 17 17 17 18 18 18 18 18 18 18 18 18 18 17 17 17 17 17 17 17 17 17 17 17 17 17 16 16 16 16 16 16 15 15 15 15 15 15 15 15 15
16 17 17 17 17 17 17 17 18 17 17 17 17 17 17 17 17 17 17 17 17 17 16 16 16 16 16 16 16 16 16 16 16 15 15 15 15 15 15 15 15 14 14 14
16 16 16 16 16 17 17 17 17 17 17 17 17 16 16 16 16 16 16 16 16 16 16 16 16 16 16 16 15 15 15 15 15 15 15 15 14 14 14 14 14 14 14 14
15 15 16 16 16 16 16 16 16 16 16 16 16 16 16 16 16 16 15 15 16 16 15 15 15 15 15 15 15 15 15 15 14 14 14 14 14 14 14 14 14 14 14 14
14 15 15 15 15 15 15 15 15 16 15 15 16 15 15 15 15 15 15 15 15 15 15 15 15 15 15 15 14 14 14 14 14 14 13 13 14 14 14 14 14 14 13 13
14 14 14 14 15 15 15 15 15 15 15 15 15 15 15 15 15 15 14 15 15 14 14 14 14 14 14 14 14 14 14 13 13 13 13 13 13 13 13 13 13 13 13 13
13 14 14 14 14 14 14 14 14 15 15 15 15 15 15 15 14 14 14 14 14 14 14 14 14 14 14 14 14 13 13 13 13 13 13 13 13 13 13 12 12 12 12 12
13 13 14 14 14 14 14 14 14 14 14 14 14 14 14 14 14 14 14 14 14 14 14 13 13 13 13 13 13 13 13 13 13 13 12 12 12 12 12 12 12 11 11 11
13 13 13 13 13 13 13 13 14 14 14 14 14 14 14 14 13 13 13 13 13 13 13 13 13 13 13 13 12 12 12 12 12 12 12 12 12 12 11 11 11 11 11 10
13 13 13 13 13 13 13 13 13 13 13 13 13 13 13 13 13 13 13 13 13 12 12 12 12 12 12 12 12 12 12 12 12 12 11 11 11 11 11 11 10 10 10 10
Wind_Speed
5 4 1 3 5 3 4 8 8 8 8 8 9 10 10 11 11 11 10 11 12 11 10 10 9 9 9 9 9 10 10 10 9 8 7 7 6 6 5 5 5 4 4 3
2 2 2 3 4 5 5 5 6 6 4 5 5 7 7 10 12 11 11 12 12 11 11 10 10 10 9 9 9 10 10 10 9 8 7 7 7 6 5 5 4 4 4 3
2 4 3 4 5 3 3 3 7 7 8 5 5 8 10 10 11 11 12 11 12 12 12 11 11 10 10 9 9 9 9 9 8 8 8 8 8 7 6 6 5 4 4 4
2 2 5 10 5 2 2 2 4 6 7 11 11 10 9 9 11 10 11 12 11 11 10 9 9 9 9 9 9 9 9 8 8 8 8 7 7 7 6 5 5 5 4 4
3 2 5 8 5 1 2 3 1 5 6 7 7 6 2 4 8 10 11 11 10 11 10 10 10 10 9 9 9 9 9 8 8 9 9 8 8 8 6 6 5 5 4 5
4 3 6 8 8 3 5 2 4 4 7 7 8 5 5 6 7 8 7 7 8 8 8 9 9 10 9 9 9 10 9 9 8 8 9 9 9 7 6 6 6 5 5 5
4 3 6 8 7 3 3 6 4 3 6 7 6 7 7 7 8 9 9 8 9 9 9 9 9 10 9 8 9 9 8 7 7 8 8 8 7 6 6 6 6 5 5 5
5 4 7 6 2 2 6 4 2 3 4 6 5 4 4 6 8 9 9 8 9 9 7 7 9 10 9 8 8 7 7 7 7 7 7 7 6 6 6 7 6 6 5 5
7 7 7 3 2 3 3 1 1 3 3 5 5 4 4 5 7 8 9 9 8 9 7 5 7 9 9 7 6 7 7 7 7 7 6 6 7 7 6 6 6 6 5 5
1 3 3 1 1 1 2 2 1 3 4 6 5 4 4 5 6 6 6 7 7 8 8 6 6 7 7 6 7 8 7 7 6 6 6 5 5 6 6 6 6 6 6 6
1 1 3 6 5 3 2 3 3 4 4 5 6 5 5 5 5 5 5 5 7 8 8 7 6 5 6 6 7 7 7 6 6 6 6 6 5 6 7 7 7 8 7 6
4 4 2 5 5 3 2 2 3 5 4 4 5 5 5 5 5 5 5 5 5 6 6 6 6 5 4 5 7 8 7 7 6 6 6 6 5 4 5 6 8 10 10 9
4 3 3 6 4 2 1 1 2 4 5 5 3 4 5 4 4 4 4 5 6 6 6 5 5 5 5 5 7 8 8 7 6 6 6 6 6 6 5 4 4 6 9 10
2 1 3 4 4 3 2 1 3 5 5 5 4 3 4 4 4 4 3 3 4 5 5 5 5 5 5 6 6 6 7 8 8 7 7 7 7 7 6 6 5 4 5 8
5 3 4 3 3 2 2 2 3 4 4 5 4 4 4 3 3 2 2 2 3 4 4 4 5 5 5 5 6 6 6 6 6 6 6 6 6 6 6 6 6 4 3 3
4 3 3 2 1 1 2 2 2 2 4 4 3 2 2 2 3 2 3 3 4 3 3 4 4 4 4 4 5 5 5 7 6 5 5 6 6 6 6 6 6 6 6 5
2 3 3 2 2 1 2 2 2 2 2 2 2 2 2 2 1 1 2 2 3 4 4 4 4 4 3 4 4 4 4 5 7 5 5 6 6 7 7 6 6 6 6 7
4 5 4 3 2 2 1 2 2 2 2 1 2 1 1 2 3 3 3 2 1 1 2 3 3 3 4 4 4 3 4 4 4 5 5 5 5 5 6 6 6 6 5 6
4 4 3 2 2 2 2 2 2 2 1 1 1 1 1 2 2 2 2 2 2 3 4 4 4 4 4 4 4 3 3 4 4 4 4 5 5 4 4 5 5 5 5 5
0 0 1 1 0 1 2 2 2 2 1 1 1 1 1 1 1 2 2 2 3 4 4 4 4 3 4 4 4 3 3 4 4 4 4 4 5 4 4 5 5 5 5 5
1 2 2 1 1 1 2 2 3 2 2 2 3 3 2 1 1 2 2 2 3 2 1 3 3 3 3 3 4 3 3 3 3 3 4 4 4 4 4 4 4 5 5 5
1 1 1 1 1 1 1 1 2 2 2 2 2 2 2 2 2 2 2 3 3 2 1 1 2 3 3 3 3 3 3 3 3 2 3 3 3 4 4 4 4 4 4 4
1 1 1 1 1 1 2 2 0 1 2 2 2 3 3 3 3 2 2 2 1 1 1 1 2 2 2 2 2 3 3 3 3 3 3 3 3 3 3 3 3 3 3 3
0 0 0 0 2 3 2 2 2 0 1 1 1 2 2 2 1 1 2 2 2 1 1 1 1 1 0 0 1 2 2 2 2 2 2 2 2 2 2 3 3 3 3 4
0 0 1 1 1 0 1 1 1 1 1 1 1 1 1 1 2 1 0 0 0 0 0 0 1 1 1 1 1 1 1 2 2 2 2 2 2 2 2 2 3 4 4 4
1 1 1 0 1 1 1 0 0 0 1 1 1 1 1 1 2 1 1 1 1 2 1 1 1 2 2 2 2 2 1 1 2 1 2 2 2 3 3 3 3 3 3 3
2 2 2 3 2 1 1 1 1 1 1 2 1 1 2 1 1 1 2 2 2 2 2 2 2 2 3 3 2 2 2 2 2 2 2 2 2 2 3 3 3 4 4 4
Wind_Direction
214 229 208 246 247 221 190 183 177 205 196 215 200 179 171 163 157 158 161 163 167 169 166 165 165 167 171 171 169 168 170 177 186 185 179 172 170 172 168 165 165 160 156 159
314 307 359 311 272 229 219 196 176 163 208 229 182 147 147 156 156 165 169 170 169 168 168 171 169 167 168 168 167 165 172 183 183 176 173 173 174 170 164 165 164 157 165 172
256 302 13 283 251 231 238 213 168 184 209 171 147 153 159 159 160 169 174 172 172 174 176 177 175 169 170 169 162 165 174 178 177 174 175 179 177 171 173 174 168 164 173 175
130 65 228 243 253 217 210 250 180 176 177 165 173 173 167 157 159 168 176 176 176 174 173 172 168 165 165 160 162 169 176 180 178 176 179 178 175 178 182 178 179 184 186 185
120 170 267 293 293 181 147 295 225 162 161 162 149 111 110 177 163 174 177 175 175 174 168 163 162 162 159 163 165 171 179 183 183 179 181 180 183 185 186 180 186 192 189 188
126 156 223 253 282 307 96 305 299 147 150 147 122 130 220 206 166 157 151 154 157 155 150 157 164 160 156 167 172 183 189 188 182 179 182 187 191 190 186 183 192 189 195 200
150 195 251 262 289 21 133 227 260 157 147 140 155 187 202 176 158 152 146 148 149 149 156 167 164 157 163 171 187 194 188 182 182 184 188 189 189 188 180 180 184 192 199 210
151 181 245 283 22 149 212 237 216 156 148 142 148 150 146 149 153 146 139 142 146 148 157 162 160 160 169 187 195 181 174 177 184 187 190 188 182 187 185 182 188 198 202 214
183 209 234 260 179 200 178 168 204 155 136 124 123 132 136 146 152 151 149 149 147 144 145 153 164 167 180 194 179 171 174 182 188 186 186 182 185 191 190 191 199 206 205 213
162 246 250 306 54 47 85 113 160 143 135 126 130 147 148 147 151 150 151 152 149 146 153 167 174 174 184 186 174 173 183 190 186 185 185 187 192 194 197 200 206 210 210 216
159 276 353 351 350 345 36 59 75 90 105 121 128 133 143 144 146 150 154 154 157 160 168 178 176 181 186 179 171 179 187 190 189 188 187 192 197 202 204 210 208 208 212 206
213 231 208 272 295 345 42 60 99 100 86 98 118 127 130 144 150 146 152 152 156 163 169 178 177 184 192 183 178 180 187 192 195 196 196 196 193 209 227 220 223 218 211 201
217 255 250 265 288 352 41 95 107 114 120 114 100 114 125 137 141 136 143 155 166 174 176 177 178 187 196 189 185 189 195 198 199 199 198 199 198 201 217 245 238 224 220 212
274 313 316 298 298 326 343 18 94 99 101 113 110 106 116 121 129 136 159 182 177 175 174 176 185 204 207 195 191 198 202 202 201 203 203 206 206 209 208 211 225 238 234 222
279 261 249 286 323 337 352 44 87 93 88 84 95 98 103 124 145 167 191 190 166 170 184 190 204 222 216 201 202 208 211 212 209 208 207 207 208 208 210 213 215 214 203 218
281 304 305 316 280 180 103 86 106 115 116 117 114 132 140 152 166 196 203 181 164 186 202 203 220 233 219 205 207 212 219 217 210 212 213 214 211 209 211 212 212 208 207 205
273 288 287 276 289 245 138 143 156 158 140 152 177 176 131 113 143 210 225 203 188 196 203 207 223 228 210 205 207 214 216 215 209 215 219 218 214 211 210 209 212 212 213 202
235 234 224 212 237 242 159 137 126 116 130 174 167 136 123 168 201 218 219 203 184 230 229 220 221 225 218 211 208 204 204 208 213 219 222 219 216 211 207 207 207 210 212 200
229 233 242 232 232 204 173 166 152 135 149 146 146 186 221 218 215 221 197 167 178 221 245 238 232 230 228 224 209 200 202 209 212 215 213 211 212 212 211 208 207 210 202 188
252 256 271 267 263 173 170 166 146 131 170 173 168 170 190 221 200 205 200 213 226 227 233 234 230 229 226 217 202 210 208 206 209 210 208 208 207 204 206 209 205 202 196 191
48 37 35 42 45 74 138 137 137 161 207 188 179 186 181 185 192 200 205 251 271 254 236 231 224 221 220 214 206 212 209 198 202 202 201 202 200 199 202 203 199 195 191 187
26 31 39 67 85 58 76 128 153 172 195 185 176 171 166 180 197 216 222 219 231 248 287 266 250 227 214 209 205 205 208 202 200 196 199 199 198 197 202 197 189 186 184 182
39 357 347 2 99 88 43 20 228 163 164 169 173 171 175 181 176 174 232 259 230 219 251 277 274 248 209 207 206 199 195 198 196 193 199 209 211 203 198 189 181 172 169 168
82 7 314 54 79 73 36 330 318 263 145 145 144 157 154 154 155 188 178 191 212 225 282 262 273 289 195 306 197 187 181 185 191 192 192 190 182 176 172 163 154 148 145 145
66 328 11 75 90 154 251 277 25 47 72 61 45 49 103 139 155 168 112 141 174 77 40 282 330 42 49 40 68 107 133 155 164 160 157 162 160 155 159 161 158 156 158 160
81 33 350 295 213 196 188 138 125 106 116 87 23 29 61 69 90 98 90 88 81 64 48 27 34 55 53 50 58 76 85 98 112 136 154 155 154 156 154 148 144 145 145 145
49 41 35 26 13 15 81 120 124 135 143 135 112 49 73 76 74 98 92 78 75 65 54 43 47 54 58 56 42 39 55 70 75 86 101 113 122 133 127 125 122 116 111 109
Height
1495 1490 1489 1491 1491 1491 1499 1506 1514 1511 1506 1498 1494 1493 1494 1497 1500 1504 1507 1509 1512 1515 1518 1520 1523 1525 1528 1530 1532 1533 1535 1536 1536 1537 1538 1539 1540 1541 1542 1543 1543 1543 1543 1543
1495 1488 1487 1489 1487 1488 1490 1493 1497 1498 1499 1490 1489 1491 1493 1496 1499 1502 1505 1507 1510 1513 1516 1518 1520 1523 1525 1527 1529 1531 1533 1534 1535 1536 1537 1538 1539 1539 1540 1541 1541 1542 1542 1542
1506 1494 1491 1500 1488 1486 1487 1485 1489 1497 1493 1488 1490 1490 1491 1494 1497 1499 1502 1505 1508 1510 1513 1516 1518 1521 1523 1525 1527 1529 1530 1531 1533 1534 1535 1536 1537 1537 1538 1539 1539 1540 1540 1540
1509 1504 1514 1497 1479 1479 1482 1482 1481 1483 1483 1483 1484 1487 1490 1491 1494 1497 1500 1502 1506 1509 1511 1514 1516 1519 1521 1523 1525 1527 1528 1529 1530 1531 1532 1533 1534 1535 1536 1536 1537 1537 1538 1538
1514 1515 1507 1489 1477 1477 1484 1487 1480 1480 1480 1482 1484 1488 1491 1491 1492 1494 1497 1500 1503 1506 1509 1511 1514 1517 1519 1521 1522 1524 1525 1526 1527 1528 1529 1530 1531 1532 1533 1534 1534 1535 1535 1536
1510 1512 1513 1494 1476 1473 1479 1491 1480 1478 1478 1481 1483 1493 1492 1490 1491 1493 1496 1499 1501 1504 1507 1509 1512 1514 1516 1518 1519 1520 1522 1523 1524 1525 1526 1527 1528 1529 1530 1531 1532 1532 1533 1533
1507 1509 1500 1481 1474 1474 1494 1493 1479 1477 1477 1479 1481 1483 1484 1486 1489 1491 1494 1497 1500 1502 1505 1507 1509 1512 1513 1515 1516 1518 1519 1521 1522 1523 1523 1524 1525 1526 1527 1528 1529 1529 1530 1530
1505 1508 1502 1476 1475 1481 1483 1477 1476 1476 1476 1477 1478 1480 1482 1484 1486 1489 1492 1495 1497 1500 1502 1505 1507 1509 1511 1512 1514 1516 1517 1518 1519 1519 1520 1521 1522 1523 1524 1525 1526 1526 1527 1527
1491 1491 1479 1475 1475 1476 1475 1475 1474 1474 1475 1476 1478 1480 1481 1483 1485 1487 1489 1492 1495 1497 1500 1502 1504 1506 1508 1510 1511 1513 1513 1514 1515 1516 1517 1518 1519 1520 1521 1522 1522 1523 1523 1523
1483 1479 1476 1475 1475 1474 1474 1473 1473 1473 1474 1475 1477 1479 1480 1481 1483 1486 1488 1490 1493 1495 1497 1499 1502 1503 1505 1507 1508 1509 1509 1510 1511 1512 1513 1514 1515 1516 1517 1517 1518 1518 1519 1519
1481 1478 1475 1475 1475 1474 1473 1472 1472 1472 1473 1474 1475 1477 1478 1480 1482 1485 1487 1489 1491 1493 1495 1497 1499 1500 1502 1503 1504 1505 1506 1507 1507 1508 1509 1510 1511 1512 1512 1513 1514 1515 1515 1516
1482 1477 1478 1476 1475 1474 1473 1472 1472 1472 1473 1474 1474 1476 1477 1479 1481 1483 1486 1488 1490 1491 1493 1494 1495 1497 1498 1499 1500 1501 1501 1502 1503 1504 1504 1505 1506 1507 1508 1509 1510 1511 1511 1512
1475 1474 1475 1475 1474 1474 1473 1472 1472 1472 1472 1473 1474 1475 1477 1478 1480 1482 1484 1486 1488 1489 1490 1491 1492 1493 1494 1495 1495 1496 1497 1497 1498 1499 1500 1501 1501 1502 1503 1504 1505 1506 1506 1507
1473 1473 1472 1472 1472 1471 1471 1471 1471 1471 1472 1473 1474 1475 1477 1478 1479 1481 1483 1484 1486 1487 1488 1488 1488 1489 1490 1491 1491 1491 1492 1493 1494 1494 1495 1496 1496 1497 1498 1499 1500 1500 1502 1503
1470 1471 1471 1470 1469 1469 1469 1470 1470 1470 1471 1472 1473 1474 1475 1477 1478 1479 1480 1482 1483 1484 1485 1485 1485 1485 1486 1486 1486 1487 1487 1488 1489 1489 1490 1491 1491 1492 1493 1494 1495 1495 1496 1498
1468 1468 1469 1468 1468 1467 1467 1468 1469 1469 1469 1471 1472 1473 1474 1475 1476 1477 1478 1479 1480 1480 1481 1481 1481 1482 1482 1482 1482 1482 1483 1483 1484 1484 1485 1485 1486 1487 1488 1489 1489 1490 1491 1492
1465 1465 1465 1466 1466 1466 1465 1466 1468 1468 1468 1469 1470 1471 1471 1472 1473 1474 1474 1476 1476 1477 1477 1478 1478 1478 1478 1478 1477 1477 1478 1478 1479 1479 1480 1480 1480 1481 1482 1483 1484 1485 1486 1487
1463 1463 1464 1464 1464 1464 1464 1465 1466 1467 1467 1468 1468 1469 1468 1469 1470 1471 1471 1472 1472 1473 1474 1475 1475 1475 1474 1474 1473 1473 1473 1473 1474 1474 1474 1475 1475 1476 1477 1478 1479 1480 1481 1483
1460 1461 1461 1461 1461 1462 1462 1463 1463 1464 1466 1466 1466 1466 1467 1467 1467 1468 1468 1469 1469 1470 1470 1471 1471 1471 1470 1469 1469 1469 1469 1469 1469 1469 1469 1470 1471 1472 1473 1474 1475 1476 1477 1478
1457 1457 1457 1457 1458 1459 1460 1460 1461 1461 1464 1464 1465 1464 1464 1464 1465 1465 1466 1466 1466 1466 1467 1467 1467 1466 1466 1466 1465 1465 1465 1464 1464 1464 1464 1465 1466 1466 1468 1469 1471 1472 1473 1473
1454 1455 1455 1455 1456 1457 1458 1459 1459 1460 1461 1462 1462 1462 1462 1462 1462 1463 1463 1463 1463 1464 1463 1463 1463 1463 1462 1462 1462 1461 1461 1460 1460 1460 1460 1461 1462 1462 1464 1465 1466 1468 1468 1469
1452 1453 1453 1454 1455 1455 1456 1457 1458 1458 1459 1459 1460 1460 1460 1459 1460 1460 1461 1461 1461 1461 1461 1460 1460 1459 1459 1458 1458 1457 1457 1457 1457 1457 1457 1458 1458 1459 1460 1461 1462 1463 1464 1465
1452 1453 1453 1454 1454 1453 1454 1455 1456 1456 1456 1457 1457 1457 1458 1458 1458 1458 1458 1459 1459 1459 1458 1458 1457 1456 1455 1454 1454 1454 1454 1454 1454 1454 1455 1455 1456 1456 1457 1458 1459 1460 1461 1462
1451 1452 1453 1453 1453 1453 1453 1454 1454 1454 1455 1455 1456 1456 1456 1456 1456 1456 1457 1457 1457 1457 1456 1455 1454 1453 1452 1451 1450 1450 1450 1451 1451 1451 1452 1452 1453 1453 1454 1455 1455 1456 1457 1459
1451 1451 1451 1451 1451 1452 1453 1453 1454 1454 1454 1454 1455 1455 1455 1455 1455 1454 1455 1455 1456 1455 1454 1453 1452 1451 1450 1449 1448 1448 1448 1448 1449 1449 1449 1450 1450 1451 1452 1452 1453 1453 1454 1455
1450 1450 1451 1451 1451 1451 1451 1452 1452 1452 1453 1453 1453 1453 1454 1453 1454 1454 1454 1454 1454 1453 1452 1452 1451 1450 1449 1449 1448 1447 1447 1447 1447 1447 1447 1448 1448 1448 1449 1450 1450 1451 1452 1453
1450 1450 1450 1450 1451 1451 1451 1451 1451 1451 1451 1451 1451 1452 1452 1453 1453 1453 1453 1453 1453 1452 1452 1451 1451 1450 1449 1448 1448 1447 1446 1446 1445 1446 1446 1446 1446 1447 1447 1448 1449 1449 1450 1451